Regional Weather Roundup
Issued by NWS Sterling, VA

Home | Current Version | Previous Version | Graphics & Text | Print | Product List | Glossary On
Versions: 1 2 3 4 5 6 7 8 9 10 11 12 13 14 15 16 17 18 19 20 21 22 23 24 25 26 27 28
000
ASUS41 KLWX 221411
RWRLWX

REGIONAL WEATHER ROUNDUP
NATIONAL WEATHER SERVICE BALTIMORE MD/WASHINGTON DC
1000 AM EDT MON MAY 22 2017

Note: "FAIR" indicates few or no clouds below 12,000 feet
with no significant weather and/or obstructions to visibility.
 TC=TEMPERATURE CELSIUS

 * =Non NWS site. Station does not report precipitation (e.g. rain,
    snow, etc.), thunder, or fog.

DCZ001-MDZ009-015-VAZ040>042-051-053>054-221500-
WASHINGTON METRO

CITY           SKY/WX    TMP DP  RH WIND       PRES   REMARKS
WASHINGTON NAT CLOUDY    61  59  93 SE3       30.08F
DULLES         CLOUDY    60  58  92 SE6       30.07F
ANDREWS AFB    LGT RAIN  59  58  96 S3        30.08F
FT BELVOIR     LGT RAIN  61  59  94 CALM      30.06F
QUANTICO       LGT RAIN  62  61  96 SE5       30.07F
COLLEGE PARK*  CLOUDY    59  57  94 CALM      30.07F
LEESBURG*      CLOUDY    61  61 100 S5        30.07F
MANASSAS*      LGT RAIN  61  59  93 S3        30.08F
GAITHERSBURG*  LGT RAIN  59  58  96 VRB5      30.07F

$$

MDZ006>007-011-014-221500-
BALTIMORE METRO

CITY           SKY/WX    TMP DP  RH WIND       PRES   REMARKS
BWI AIRPORT    LGT RAIN  60  60 100 CALM      30.08S
MD SCIENCE CTR   N/A     61  60  97 MISG      30.08F
MARTIN STATE   RAIN      61  61 100 E3        30.09F
ANNAPOLIS      RAIN      61  61 100 CALM      30.08S FOG

$$

MDZ012-015-019>023-221500-
MARYLAND EASTERN SHORE

CITY           SKY/WX    TMP DP  RH WIND       PRES   REMARKS
OCEAN CITY     CLOUDY    64  61  90 VRB5      30.09F
SALISBURY      CLOUDY    67  66  97 S5        30.06F
BAY BRIDGE AP* RAIN      61  59  94 CALM      30.08F FOG
CAMBRIDGE*     CLOUDY    59  59 100 CALM      30.07F FOG
EASTON*        CLOUDY    61  59  94 E3        30.11F

$$

MDZ017>025-221500-
SOUTHERN MARYLAND

CITY           SKY/WX    TMP DP  RH WIND       PRES   REMARKS
PATUXENT RIVER CLOUDY    61  61 100 N5        30.07F
ST INIGOES     CLOUDY    63  62  97 NE5       30.06F
LEONARDTOWN*   CLOUDY    61  59  94 CALM      30.09F

$$

MDZ003>005-221500-
NORTH CENTRAL MARYLAND

CITY           SKY/WX    TMP DP  RH WIND       PRES   REMARKS
FREDERICK*     NOT AVBL
HAGERSTOWN APT CLOUDY    61  57  87 S7        30.05F
WESTMINSTER*   LGT RAIN  59  59 100 S3        30.08S

$$

MDZ501>502-221500-
WESTERN MARYLAND

CITY           SKY/WX    TMP DP  RH WIND       PRES   REMARKS
OAKLAND*         N/A     57  57 100 CALM      30.08S FOG
CUMBERLAND*    PTSUNNY   63  59  88 SW5       30.07S

$$

VAZ025>031-221500-
SHENANDOAH VALLEY

CITY           SKY/WX    TMP DP  RH WIND       PRES   REMARKS
WINCHESTER*    CLOUDY    61  59  94 SE5       30.04F
FRONT ROYAL*   CLOUDY    66  63  88 NE7       30.03F
LURAY*         CLOUDY    64  61  88 SW6       30.05F
NEW MARKET*    CLOUDY    65  60  84 SW3       30.04F
STAUNTON*      MOSUNNY   65  60  86 SW6       30.08F
WAYNESBORO*    CLOUDY    65  63  94 S5        30.07F

$$

WVZ021-048>050-054>055-221500-
EASTERN WEST VIRGINIA PANHANDLE

CITY           SKY/WX    TMP DP  RH WIND       PRES   REMARKS
MARTINSBURG    CLOUDY    61  58  90 SE3       30.04F
PETERSBURG*    CLOUDY    72  63  73 CALM      30.03S

$$

VAZ036>039-050-221500-
CENTRAL FOOTHILLS

CITY           SKY/WX    TMP DP  RH WIND       PRES   REMARKS
CHARLOTTESVILL CLOUDY    63  60  90 S5        30.07F
CULPEPER*      CLOUDY    61  60  96 S3        30.07F
ORANGE*        CLOUDY    61  59  94 CALM      30.07F
GORDONSVILLE*  CLOUDY    60  60  98 SW3       30.07F
WARRENTON*     CLOUDY    62  58  88 CALM      30.07F

$$

VAZ055>057-221500-
NORTH AND CENTRAL PIEDMONT

CITY           SKY/WX    TMP DP  RH WIND       PRES   REMARKS
FREDERICKSBRG* LGT RAIN  61  61 100 SE5       30.06F
STAFFORD*      LGT RAIN  61  61 100 CALM      30.11F

$$

NCZ024-NYZ072-PAZ021-071-VAZ022-071-221500-
OTHER REGIONAL OBSERVATIONS

CITY           SKY/WX    TMP DP  RH WIND       PRES   REMARKS
NEW YORK CITY  CLOUDY    55  53  93 VRB5      30.16F FOG
PHILADELPHIA   LGT RAIN  59  56  89 E6        30.10F
PITTSBURGH     CLOUDY    62  56  80 W9        30.03R
ROANOKE        CLOUDY    65  61  87 W6        30.09F
RICHMOND       CLOUDY    62  62 100 N5        30.07F FOG
RALEIGH        CLOUDY    68  65  90 SW15      30.01F

$$

ANZ530>537-221500-
MARINE OBSERVATIONS

STATION/POSITION TIME  TEMP    WIND        PRES
                       AIR SEA DIR/SP/G
                 (UTC) (F)     (DEG/KT/KT) (MB)
THOMAS PT LIGHT  1400   60 66  150/  3/  5   N/A
BALT KEY BRIDGE  1348   60      90/  5/  5 1018.5F
COVE POINT       1348   60      50/  3/  4 1019.1F
LEWISETTA        1348   63 69   20/  1/  2 1018.0F
SOLOMONS ISLAND  1348   61 67  330/  3/  4   N/A
PINEY POINT      1348          360/  4/  5   N/A

$$





USA.gov is the U.S. government's official web portal to all federal, state and local government web resources and services.